Location: Buckland
(65.9785°N, 161.1281°W)
Time: 14:07:18
(UTC+00:00)

Transit 4A - Pass Details

Date: 06 October 2022
Orbit: 871 x 972 km, 66.8° (Epoch: 29 November)

Event Time Altitude Azimuth Distance (km) Brightness Sun altitude
Exits shadow 14:31:04 13° 292° (WNW) 2,365 9.6 -16.8°
Maximum altitude 14:36:25 72° 210° (SSW) 931 7.7 -16.3°
Drops below altitude 10° 14:42:14 10° 127° (SE) 2,529 10.6 -15.8°
Sets 14:44:42 0° 125° (SE) 3,462 11.3 -15.5°
